[[{"header":{"parameterUnit":"m.s-1","parameterCategory":1,"la1":30.2991,"la2":30.254,"lo1":-89.0895,"lo2":-89.0444,"dy":0.0017,"dx":0.0017,"nx":28,"ny":28,"refTime":"2025-03-07T03:00:00:Z","depth":0,"parameterNumber":2,"parameterNumberName":"U-component_of_WINDS"},"data":[0,0,0,0,0,0,0,0,0,0,0,0,0,0,0,0,0,0,0,0,0,0,0,0,0,0,0,0,0,0,0,0,0,0,0,0,0,0,0,0,0,0,0,0,0,0,0,0,0,0,0,0,0,0,0,0,0,0,-1.1704,-1.1704,0,-1.1734,-1.1735,-1.1735,-1.1688,-1.1686,-1.1684,-1.1683,-1.1715,-1.1718,-1.172,0,0,0,0,0,0,0,0,0,0,0,0,0,-1.1605,-1.1607,-1.1704,-1.1704,-1.1704,-1.1734,-1.1735,-1.1735,-1.1688,-1.1686,-1.1684,-1.1682,-1.1715,-1.1718,-1.172,0,0,0,0,0,0,0,0,0,0,0,0,0,-1.1643,-1.1608,-1.1704,-1.1684,-1.1683,-1.1734,-1.1735,-1.1735,-1.1688,-1.1686,-1.1683,-1.1681,-1.1714,-1.1717,-1.1721,-1.1793,0,0,-1.1732,-1.1733,0,0,0,0,0,0,0,0,-1.1641,-1.1647,-1.1687,-1.1686,-1.1684,-1.1705,-1.1712,-1.1755,-1.1689,-1.1686,-1.1683,-1.168,-1.1714,-1.1717,-1.1729,-1.1794,-1.1796,-1.1732,-1.1734,-1.1736,-1.1737,0,0,0,0,0,0,0,-1.1638,-1.1645,-1.1716,-1.1687,-1.1686,-1.1674,-1.1677,-1.172,-1.1714,-1.1686,-1.1683,-1.1687,-1.1713,-1.1725,-1.1729,-1.1796,-1.1732,-1.1735,-1.1738,-1.1739,-1.1923,-1.1925,0,0,0,0,0,0,-1.1638,-1.1643,-1.1715,-1.1717,-1.1656,-1.1678,-1.1681,-1.1701,-1.1713,-1.1713,-1.1689,-1.1685,-1.172,-1.1725,-1.173,-1.1816,-1.1736,-1.1739,-1.1741,-1.192,-1.1923,-1.1926,0,0,0,0,0,0,-1.1636,-1.1645,-1.1714,-1.1679,-1.1687,-1.1683,-1.1705,-1.1703,-1.1715,-1.1715,-1.1714,-1.1703,-1.1719,-1.1725,-1.1777,-1.1816,-1.1741,-1.1744,-1.1917,-1.1921,-1.1925,-1.1987,0,0,0,0,0,0,-1.1633,-1.1644,-1.1671,-1.168,-1.1689,-1.1761,-1.1707,-1.1705,-1.1721,-1.1716,-1.1728,-1.1728,-1.1717,-1.1772,-1.1781,-1.182,-1.1747,-1.1913,-1.1919,-1.1923,-1.1982,-1.1993,-1.2002,0,0,0,0,0,-1.163,-1.1688,-1.1673,-1.1682,-1.1723,-1.1763,-1.1768,-1.1754,-1.1724,-1.1752,-1.1752,-1.1727,-1.181,-1.1778,-1.1788,-1.1828,-1.1911,-1.1917,-1.1923,-1.1977,-1.1991,-1.2002,0,0,0,0,0,0,-1.1685,-1.1689,-1.1672,-1.1735,-1.1749,-1.1755,-1.1789,-1.1769,-1.1792,-1.1786,-1.1769,-1.1772,-1.1828,-1.1833,-1.1797,-1.1898,-1.1855,-1.1864,-1.1893,-1.1906,-1.1916,-1.1915,-1.175,0,0,0,0,0,-1.1704,-1.1736,-1.1738,-1.1793,-1.1801,-1.1794,-1.1811,-1.1799,-1.1813,-1.1819,-1.1822,-1.1837,-1.1866,-1.1886,-1.1913,-1.1981,-1.1984,-1.2014,-1.2024,-1.2032,-1.204,-1.2077,-1.2091,-1.1946,-1.1946,-1.1946,0,0,-1.1745,-1.1751,-1.1772,-1.1804,-1.1814,-1.1848,-1.1799,-1.1837,-1.1862,-1.1824,-1.1875,-1.1878,-1.1893,-1.1954,-1.1981,-1.1959,-1.208,-1.204,-1.2047,-1.205,-1.2085,-1.2098,-1.2111,-1.195,-1.1949,-1.1949,0,0,-1.1836,-1.1844,-1.1891,-1.1901,-1.1915,-1.191,-1.1921,-1.193,-1.1931,-1.198,-1.1953,-1.1982,-1.2033,-1.2045,-1.2058,-1.2153,-1.2131,-1.2162,-1.2217,-1.2253,-1.2264,-1.2274,-1.2309,-1.2322,-1.217,-1.217,-1.217,0,-1.1885,-1.1935,-1.1917,-1.1957,-1.1972,-1.1939,-1.1986,-1.1997,-1.202,-1.2031,-1.2007,-1.207,-1.2077,-1.2141,-1.2164,-1.2175,-1.2188,-1.2161,-1.2264,-1.2274,-1.2283,-1.2316,-1.2329,-1.2173,-1.2173,-1.2173,-1.2172,0,-1.1994,-1.2029,-1.2065,-1.2088,-1.2107,-1.215,-1.214,-1.2161,-1.2147,-1.2145,-1.2196,-1.2203,-1.2232,-1.2245,-1.2232,-1.2307,-1.2293,-1.2267,-1.2224,-1.2301,-1.2332,-1.2344,-1.2179,-1.2177,-1.2176,-1.2175,0,0,-1.2123,-1.2135,-1.2148,-1.2158,-1.2171,-1.2198,-1.224,-1.2266,-1.2285,-1.2302,-1.2337,-1.238,-1.2355,-1.237,-1.2358,-1.2389,-1.2465,-1.2359,-1.2359,-1.2379,-1.2548,-1.2569,-1.2584,-1.245,-1.2452,-1.2454,-1.2547,0,-1.2215,-1.2287,-1.2272,-1.2343,-1.2375,-1.2343,-1.238,-1.2392,-1.239,-1.2417,-1.2415,-1.2447,-1.2411,-1.242,-1.2449,-1.2449,-1.2499,-1.2442,-1.2483,-1.2485,-1.2482,-1.26,-1.2622,-1.271,-1.2559,-1.2561,-1.2562,0,-1.2332,-1.2353,-1.2427,-1.2434,-1.2447,-1.248,-1.2504,-1.253,-1.2543,-1.2539,-1.2555,-1.2537,-1.2579,-1.2534,-1.2591,-1.2553,-1.2569,-1.2571,-1.2574,-1.2579,-1.2529,-1.2609,-1.2738,-1.2752,-1.2581,-1.258,-1.2578,0,-1.242,-1.2466,-1.2516,-1.2525,-1.2535,-1.2559,-1.2565,-1.2575,-1.2592,-1.2612,-1.2623,-1.2648,-1.2662,-1.2682,-1.2671,-1.2639,-1.2731,-1.2685,-1.273,-1.2731,-1.2752,-1.2751,-1.2887,-1.276,-1.276,-1.276,-1.2759,0,-1.2525,-1.2572,-1.2556,-1.2587,-1.2638,-1.2621,-1.2672,-1.2674,-1.2683,-1.2714,-1.2687,-1.2717,-1.27,-1.2728,-1.272,-1.2769,-1.2775,-1.2774,-1.2772,-1.2778,-1.2778,-1.2789,-1.2783,-1.2763,-1.2762,-1.2762,-1.2761,0,-1.2633,-1.2624,-1.2677,-1.2681,-1.2683,-1.2721,-1.2725,-1.2754,-1.275,-1.279,-1.2798,-1.2792,-1.2824,-1.2814,-1.2849,-1.2843,-1.2906,-1.2895,-1.2902,-1.2899,-1.2945,-1.2942,-1.3094,-1.3113,-1.2973,-1.2974,-1.2975,0,-1.2702,-1.2737,-1.2745,-1.2763,-1.2771,-1.2801,-1.2818,-1.2801,-1.282,-1.2837,-1.2864,-1.2894,-1.2917,-1.2969,-1.2968,-1.2994,-1.2985,-1.3036,-1.2988,-1.2993,-1.2987,-1.2985,-1.2989,-1.3046,-1.3048,-1.3049,-1.305,0,-1.2824,-1.2818,-1.2843,-1.2867,-1.2888,-1.2906,-1.2922,-1.2938,-1.2923,-1.2945,-1.2977,-1.2995,-1.303,-1.306,-1.3084,-1.3089,-1.3068,-1.3065,-1.3077,-1.3084,-1.3087,-1.3087,-1.2929,-1.3062,-1.3061,-1.306,-1.3059,-1.3059,-1.2915,-1.2945,-1.2956,-1.2985,-1.2994,-1.3009,-1.3037,-1.3036,-1.3062,-1.3089,-1.3077,-1.3115,-1.3126,-1.3156,-1.3164,-1.3193,-1.3174,-1.3191,-1.3195,-1.32,-1.3207,-1.3081,-1.3197,-1.3197,-1.3197,-1.3196,-1.3196,0,-1.3038,-1.3043,-1.3069,-1.3092,-1.3115,-1.3091,-1.3107,-1.3128,-1.3161,-1.3173,-1.3195,-1.3232,-1.3261,-1.3261,-1.3288,-1.3311,-1.3302,-1.3319,-1.3318,-1.332,-1.3222,-1.321,-1.3326,-1.3326,-1.3326,-1.3326,-1.3326,-1.3326,-1.3105,-1.3154,-1.3148,-1.3202,-1.3206,-1.3242,-1.3254,-1.3267,-1.3277,-1.3319,-1.3343,-1.3342,-1.335,-1.3377,-1.3402,-1.3401,-1.3413,-1.3434,-1.343,-1.3339,-1.3327,-1.3314,-1.3302,-1.3437,-1.3437,-1.3525,-1.3526,-1.3527]},{"header":{"parameterUnit":"m.s-1","parameterCategory":1,"la1":30.2991,"la2":30.254,"lo1":-89.0895,"lo2":-89.0444,"dy":0.0017,"dx":0.0017,"nx":28,"ny":28,"refTime":"2025-03-07T03:00:00:Z","depth":0,"parameterNumber":3,"parameterNumberName":"V-component_of_WINDS"},"data":[0,0,0,0,0,0,0,0,0,0,0,0,0,0,0,0,0,0,0,0,0,0,0,0,0,0,0,0,0,0,0,0,0,0,0,0,0,0,0,0,0,0,0,0,0,0,0,0,0,0,0,0,0,0,0,0,0,0,-1.3036,-1.3035,0,-1.293,-1.2929,-1.2927,-1.2892,-1.2892,-1.2893,-1.2893,-1.2777,-1.2774,-1.277,0,0,0,0,0,0,0,0,0,0,0,0,0,-1.3202,-1.3199,-1.3036,-1.3035,-1.3033,-1.293,-1.2928,-1.2927,-1.2892,-1.2892,-1.2893,-1.2893,-1.2778,-1.2774,-1.277,0,0,0,0,0,0,0,0,0,0,0,0,0,-1.3116,-1.3198,-1.3036,-1.3003,-1.2999,-1.293,-1.2928,-1.2927,-1.2891,-1.2892,-1.2893,-1.2893,-1.278,-1.2775,-1.2769,-1.2723,0,0,-1.2753,-1.2751,0,0,0,0,0,0,0,0,-1.3121,-1.311,-1.301,-1.3006,-1.3001,-1.2925,-1.2944,-1.2858,-1.2891,-1.2932,-1.2893,-1.2894,-1.2825,-1.2816,-1.2795,-1.2718,-1.2713,-1.2753,-1.275,-1.2747,-1.2746,0,0,0,0,0,0,0,-1.3127,-1.3114,-1.2994,-1.3008,-1.3003,-1.2992,-1.298,-1.2928,-1.2876,-1.2929,-1.2926,-1.2914,-1.2823,-1.28,-1.2792,-1.2711,-1.2753,-1.2748,-1.2745,-1.2743,-1.259,-1.2589,0,0,0,0,0,0,-1.3139,-1.312,-1.2997,-1.2991,-1.3064,-1.2988,-1.2976,-1.2948,-1.2876,-1.2866,-1.2914,-1.2913,-1.2808,-1.2798,-1.2787,-1.2728,-1.2747,-1.2743,-1.2739,-1.2591,-1.259,-1.2589,0,0,0,0,0,0,-1.3143,-1.3129,-1.3001,-1.3054,-1.3037,-1.2985,-1.2955,-1.2946,-1.2923,-1.2865,-1.2855,-1.29,-1.2809,-1.2795,-1.274,-1.2724,-1.274,-1.2735,-1.2592,-1.2591,-1.259,-1.261,0,0,0,0,0,0,-1.3148,-1.313,-1.3114,-1.3054,-1.3035,-1.2957,-1.2954,-1.2943,-1.2915,-1.2913,-1.285,-1.284,-1.2808,-1.2748,-1.2735,-1.2717,-1.2731,-1.2593,-1.2592,-1.259,-1.261,-1.2609,-1.2609,0,0,0,0,0,-1.3154,-1.3122,-1.3113,-1.3098,-1.3013,-1.2957,-1.2945,-1.2911,-1.2914,-1.2895,-1.2858,-1.2842,-1.2728,-1.2743,-1.2727,-1.2708,-1.2594,-1.2592,-1.259,-1.2611,-1.261,-1.2609,0,0,0,0,0,0,-1.3178,-1.3114,-1.3103,-1.3051,-1.301,-1.2951,-1.2927,-1.2911,-1.2867,-1.2866,-1.2824,-1.281,-1.2758,-1.2727,-1.2745,-1.2659,-1.266,-1.2655,-1.2681,-1.2679,-1.2679,-1.2686,-1.2727,0,0,0,0,0,-1.3178,-1.314,-1.3085,-1.3044,-1.3024,-1.2979,-1.2953,-1.2931,-1.2886,-1.2868,-1.2826,-1.2781,-1.2735,-1.2706,-1.266,-1.2606,-1.2591,-1.2585,-1.2584,-1.2584,-1.2579,-1.2548,-1.2545,-1.2582,-1.2583,-1.2583,0,0,-1.3176,-1.3136,-1.3114,-1.3048,-1.3013,-1.2973,-1.2965,-1.2922,-1.2891,-1.286,-1.2806,-1.2775,-1.2721,-1.2667,-1.2641,-1.2639,-1.2566,-1.2581,-1.2581,-1.2577,-1.2546,-1.2542,-1.2539,-1.2581,-1.2581,-1.2582,0,0,-1.3151,-1.3118,-1.3081,-1.3047,-1.2996,-1.2967,-1.2958,-1.2901,-1.288,-1.2826,-1.2802,-1.2764,-1.2686,-1.2649,-1.262,-1.2583,-1.2566,-1.2569,-1.2564,-1.2534,-1.2531,-1.2528,-1.2514,-1.251,-1.2565,-1.2565,-1.2565,0,-1.3155,-1.3095,-1.3063,-1.3022,-1.2994,-1.2967,-1.2928,-1.2896,-1.2831,-1.2811,-1.2812,-1.2714,-1.2676,-1.2612,-1.2604,-1.2581,-1.2568,-1.2576,-1.2535,-1.2531,-1.2528,-1.2514,-1.2509,-1.2566,-1.2566,-1.2566,-1.2566,0,-1.3101,-1.306,-1.3036,-1.2978,-1.2946,-1.2906,-1.2867,-1.2838,-1.2819,-1.2789,-1.2734,-1.2688,-1.2633,-1.2616,-1.2596,-1.2549,-1.255,-1.2543,-1.2543,-1.2526,-1.2512,-1.2507,-1.2567,-1.2567,-1.2567,-1.2566,0,0,-1.3088,-1.3014,-1.3005,-1.2979,-1.2921,-1.2888,-1.2846,-1.2795,-1.2771,-1.2728,-1.2691,-1.2626,-1.262,-1.2587,-1.2562,-1.2536,-1.251,-1.2532,-1.253,-1.2529,-1.2455,-1.246,-1.2455,-1.2498,-1.2497,-1.2496,-1.2459,0,-1.3055,-1.2983,-1.2954,-1.2894,-1.2855,-1.283,-1.2794,-1.2753,-1.2724,-1.2685,-1.2652,-1.2607,-1.2602,-1.2582,-1.2556,-1.2519,-1.2494,-1.2521,-1.2462,-1.246,-1.2476,-1.2448,-1.2453,-1.242,-1.2454,-1.2453,-1.2452,0,-1.3008,-1.2968,-1.2905,-1.2853,-1.2836,-1.2804,-1.2755,-1.2719,-1.2672,-1.2652,-1.2617,-1.2594,-1.2548,-1.2552,-1.2487,-1.2506,-1.248,-1.2459,-1.2457,-1.2449,-1.2455,-1.2439,-1.2409,-1.2404,-1.2444,-1.2444,-1.2445,0,-1.3004,-1.2933,-1.2887,-1.2865,-1.2803,-1.2781,-1.2754,-1.2709,-1.268,-1.2636,-1.2617,-1.2567,-1.254,-1.2501,-1.2465,-1.2472,-1.2403,-1.2405,-1.2385,-1.2385,-1.237,-1.2371,-1.2335,-1.2355,-1.2355,-1.2355,-1.2355,0,-1.297,-1.2933,-1.2884,-1.2856,-1.2813,-1.2779,-1.2736,-1.2707,-1.2667,-1.263,-1.2605,-1.2571,-1.2526,-1.2485,-1.2457,-1.2407,-1.2395,-1.2376,-1.2369,-1.2378,-1.2381,-1.236,-1.2361,-1.2354,-1.2354,-1.2355,-1.2355,0,-1.2957,-1.2924,-1.2872,-1.2819,-1.2804,-1.2775,-1.2728,-1.2698,-1.2669,-1.2624,-1.2611,-1.2564,-1.2515,-1.2476,-1.2412,-1.2392,-1.234,-1.2332,-1.2357,-1.2353,-1.2335,-1.2337,-1.2283,-1.2274,-1.2301,-1.2301,-1.2301,0,-1.2938,-1.2909,-1.2854,-1.2829,-1.2803,-1.2763,-1.2735,-1.27,-1.2671,-1.2616,-1.2592,-1.2543,-1.2501,-1.2425,-1.2383,-1.2334,-1.2324,-1.2309,-1.2316,-1.2327,-1.2323,-1.2325,-1.2321,-1.2307,-1.2307,-1.2307,-1.2307,0,-1.2907,-1.2892,-1.2853,-1.2809,-1.2776,-1.2739,-1.27,-1.2681,-1.2638,-1.2607,-1.2558,-1.2526,-1.2462,-1.2413,-1.2359,-1.2329,-1.231,-1.2306,-1.2298,-1.2307,-1.2322,-1.2313,-1.2354,-1.2306,-1.2307,-1.2307,-1.2307,-1.2307,-1.2889,-1.2863,-1.282,-1.2778,-1.2746,-1.2711,-1.2681,-1.2649,-1.2609,-1.2556,-1.2537,-1.2487,-1.2441,-1.2368,-1.2338,-1.2297,-1.2295,-1.2284,-1.2281,-1.2279,-1.228,-1.233,-1.2287,-1.2287,-1.2287,-1.2287,-1.2287,0,-1.2856,-1.2828,-1.279,-1.2739,-1.2705,-1.2694,-1.2651,-1.2623,-1.2581,-1.254,-1.2501,-1.2445,-1.2397,-1.2353,-1.2303,-1.2278,-1.2269,-1.2266,-1.2267,-1.226,-1.2285,-1.2296,-1.2275,-1.2275,-1.2275,-1.2275,-1.2275,-1.2275,-1.2835,-1.279,-1.277,-1.2708,-1.268,-1.2633,-1.2609,-1.2576,-1.2544,-1.2484,-1.2446,-1.2418,-1.2376,-1.2323,-1.2278,-1.2266,-1.2248,-1.2248,-1.2233,-1.2257,-1.2258,-1.226,-1.227,-1.2244,-1.2244,-1.2212,-1.2212,-1.2212]}]]